TimeMST,TemperatureF,Dew PointF,Humidity,Sea Level PressureIn,VisibilityMPH,Wind Direction,Wind SpeedMPH,Gust SpeedMPH,PrecipitationIn,Events,Conditions,WindDirDegrees,DateUTC
12:56 AM,30.9,28.0,89,30.24,10.0,NW,12.7,-,N/A,,Scattered Clouds,310,2013-01-17 07:56:00
1:56 AM,30.9,28.0,89,30.26,10.0,WNW,9.2,-,N/A,,Overcast,300,2013-01-17 08:56:00
2:56 AM,32.0,28.9,88,30.27,10.0,WNW,10.4,-,N/A,,Overcast,300,2013-01-17 09:56:00
3:56 AM,32.0,28.9,88,30.28,10.0,WNW,8.1,-,N/A,,Overcast,300,2013-01-17 10:56:00
4:19 AM,32.0,28.4,87,30.21,10.0,NW,8.1,-,N/A,,Overcast,310,2013-01-17 11:19:00
5:56 AM,32.0,27.0,82,30.30,10.0,NNW,10.4,-,N/A,,Overcast,330,2013-01-17 12:56:00
6:56 AM,30.0,26.1,85,30.32,10.0,NNW,4.6,-,N/A,,Overcast,340,2013-01-17 13:56:00
7:56 AM,30.0,25.0,82,30.33,10.0,Calm,Calm,-,N/A,,Overcast,0,2013-01-17 14:56:00
8:44 AM,28.4,24.8,86,30.26,10.0,Calm,Calm,-,N/A,,Overcast,0,2013-01-17 15:44:00
8:56 AM,28.9,24.1,82,30.36,10.0,Calm,Calm,-,N/A,,Overcast,0,2013-01-17 15:56:00
9:56 AM,30.0,26.1,85,30.34,10.0,SE,4.6,-,N/A,,Overcast,130,2013-01-17 16:56:00
10:03 AM,30.2,26.6,86,30.24,10.0,SE,5.8,-,N/A,,Overcast,130,2013-01-17 17:03:00
10:17 AM,30.2,26.6,86,30.24,10.0,SE,5.8,-,N/A,,Overcast,140,2013-01-17 17:17:00
10:56 AM,30.0,26.1,85,30.29,10.0,SSE,8.1,-,N/A,,Overcast,160,2013-01-17 17:56:00
11:56 AM,32.0,28.0,85,30.25,10.0,SSE,6.9,-,N/A,,Overcast,150,2013-01-17 18:56:00
12:12 PM,32.0,28.4,87,30.15,10.0,SE,5.8,-,N/A,,Scattered Clouds,140,2013-01-17 19:12:00
12:56 PM,33.1,28.9,85,30.22,10.0,SE,8.1,-,N/A,,Clear,130,2013-01-17 19:56:00
1:56 PM,34.0,28.9,82,30.17,10.0,SE,11.5,-,N/A,,Partly Cloudy,130,2013-01-17 20:56:00
2:56 PM,34.0,30.0,85,30.14,10.0,South,6.9,-,N/A,,Overcast,170,2013-01-17 21:56:00
3:56 PM,35.1,28.9,78,30.12,10.0,South,8.1,-,N/A,,Overcast,190,2013-01-17 22:56:00
4:56 PM,34.0,28.9,82,30.08,10.0,South,11.5,-,N/A,,Overcast,190,2013-01-17 23:56:00
5:56 PM,36.0,28.0,73,30.06,10.0,SW,12.7,-,N/A,,Overcast,230,2013-01-18 00:56:00
6:56 PM,34.0,27.0,75,30.04,10.0,WSW,10.4,-,N/A,,Overcast,250,2013-01-18 01:56:00
7:56 PM,33.1,26.1,75,30.01,10.0,West,10.4,-,N/A,,Clear,260,2013-01-18 02:56:00
8:56 PM,34.0,25.0,70,29.97,10.0,WSW,12.7,-,N/A,,Clear,250,2013-01-18 03:56:00
9:56 PM,34.0,24.1,67,29.93,10.0,WSW,15.0,-,N/A,,Clear,240,2013-01-18 04:56:00
10:56 PM,35.1,25.0,67,29.90,10.0,WSW,19.6,-,N/A,,Clear,240,2013-01-18 05:56:00